Manistique, MI

1:30 AM EST on February 12, 2016 (GMT -0500)
Schoolcraft County

Weather History for KISQ - November, 2013

Change the Weather History Date:

Saturday, November 9, 2013

  Actual Average Record
Temperature  
Mean Temperature 40 °F -  
Max Temperature 44 °F 42 °F 58 °F (1970)
Min Temperature 37 °F 29 °F 15 °F (1991)
Degree Days  
Heating Degree Days 24    
Moisture  
Dew Point 38 °F    
Average Humidity 90    
Maximum Humidity 97    
Minimum Humidity 79    
Precipitation  
Precipitation 0.05 in - - ()
Sea Level Pressure  
Sea Level Pressure 29.70 in    
Wind  
Wind Speed 12 mph (SW)    
Max Wind Speed 20 mph    
Max Gust Speed 29 mph    
Visibility 8 miles    
Events Rain    
Averages and records for this station are not official NWS values.
T = Trace of Precipitation, MM = Missing Value Source: NWS Daily Summary

Daily Weather History Graph

Daily Weather History Graph

Search for Another Location

Airport or City:

Trip Planner

Search our weather history database for the weather conditions in past years. The results will help you decide how hot, cold, wet, or windy it might be!

Date:

Astronomy

Nov. 09, 2013 Rise Set
Actual Time 7:36 AM EST 5:19 PM EST
Civil Twilight 7:05 AM EST 5:51 PM EST
Nautical Twilight 6:29 AM EST 6:27 PM EST
Astronomical Twilight 5:54 AM EST 7:02 PM EST
Moon 1:10 PM EST (11/9) 11:53 PM EST (11/9)
Length of Visible Light 10h 46m
Length of Day
9h 42m
Waxing Crescent, 44% of the Moon is Illuminated
Nov 9
Waxing Crescent
Nov 10
First Quarter
Nov 17
Full
Nov 25
Last Quarter
Dec 2
New

Hourly Weather History & Observations

Time (EST) Temp. Windchill Dew Point Humidity Pressure Visibility Wind Dir Wind Speed Gust Speed Precip Events Conditions
12:14 AM 40.1 °F 33.2 °F 37.2 °F 89% 29.97 in 10.0 mi SSE 11.5 mph 20.7 mph N/A Rain Light Rain
12:35 AM 40.1 °F 32.7 °F 36.5 °F 87% 29.95 in 10.0 mi SSE 12.7 mph 19.6 mph N/A   Overcast
12:55 AM 40.3 °F 33.0 °F 36.1 °F 85% 29.94 in 10.0 mi SE 12.7 mph 19.6 mph N/A   Overcast
1:14 AM 40.3 °F 32.6 °F 35.6 °F 83% 29.92 in 10.0 mi SE 13.8 mph 20.7 mph N/A   Overcast
1:35 AM 40.8 °F 32.9 °F 36.3 °F 84% 29.90 in 10.0 mi SE 15.0 mph 21.9 mph N/A   Overcast
1:54 AM 41.4 °F 33.3 °F 36.5 °F 83% 29.88 in 10.0 mi SE 16.1 mph 24.2 mph N/A   Overcast
2:15 AM 41.4 °F 32.7 °F 37.4 °F 86% 29.86 in 7.0 mi SE 18.4 mph 25.3 mph N/A Rain Light Rain
2:35 AM 41.0 °F 33.1 °F 38.3 °F 90% 29.85 in 7.0 mi SSE 15.0 mph 27.6 mph N/A Rain Rain
2:54 AM 41.0 °F 32.5 °F 38.3 °F 90% 29.83 in 4.0 mi SSE 17.3 mph 27.6 mph N/A Rain Light Rain
3:15 AM 40.6 °F 32.0 °F 38.1 °F 91% 29.82 in 5.0 mi SSE 17.3 mph 21.9 mph N/A   Overcast
3:35 AM 41.0 °F 32.5 °F 38.3 °F 90% 29.80 in 4.0 mi SSE 17.3 mph 27.6 mph 0.02 in   Overcast
3:54 AM 40.8 °F 32.0 °F 38.5 °F 91% 29.79 in 5.0 mi SSE 18.4 mph 25.3 mph 0.02 in   Overcast
4:15 AM 40.6 °F 32.3 °F 38.5 °F 92% 29.77 in 5.0 mi SSE 16.1 mph 24.2 mph 0.01 in   Unknown
4:35 AM 41.0 °F 31.9 °F 38.3 °F 90% 29.75 in 10.0 mi SSE 19.6 mph 26.5 mph 0.01 in Rain Light Rain
4:55 AM 40.6 °F 31.7 °F 37.9 °F 90% 29.74 in 7.0 mi SSE 18.4 mph 27.6 mph 0.01 in Rain Light Rain
5:15 AM 40.3 °F 32.2 °F 37.8 °F 91% 29.73 in 7.0 mi SSE 15.0 mph 25.3 mph 0.01 in Rain Light Rain
5:34 AM 40.3 °F 31.0 °F 38.3 °F 93% 29.72 in 5.0 mi SSE 19.6 mph 28.8 mph 0.01 in   Unknown
5:55 AM 40.8 °F 32.0 °F 39.0 °F 93% 29.70 in 5.0 mi SSE 18.4 mph 26.5 mph 0.01 in   Overcast
6:15 AM 41.2 °F 33.0 °F 39.6 °F 94% 29.69 in 3.0 mi SSE 16.1 mph 25.3 mph N/A   Overcast
6:34 AM 41.9 °F 36.3 °F 40.3 °F 94% 29.68 in 5.0 mi SSW 9.2 mph - N/A Rain Rain
6:55 AM 41.5 °F 36.4 °F 39.2 °F 91% 29.67 in 10.0 mi South 8.1 mph - 0.01 in Rain Rain
7:15 AM 42.1 °F 37.7 °F 40.5 °F 94% 29.65 in 10.0 mi SSE 6.9 mph - N/A Rain Light Rain
7:35 AM 43.2 °F 36.6 °F 42.3 °F 97% 29.64 in 10.0 mi SSE 12.7 mph - N/A Rain Light Rain
7:55 AM 43.2 °F 35.3 °F 42.3 °F 97% 29.63 in 7.0 mi SSE 17.3 mph 21.9 mph N/A Rain Light Rain
8:14 AM 43.0 °F 37.2 °F 41.9 °F 96% 29.63 in 5.0 mi SSE 10.4 mph 21.9 mph N/A Rain Light Rain
8:35 AM 44.1 °F 39.0 °F 42.4 °F 94% 29.62 in 7.0 mi South 9.2 mph 21.9 mph N/A Rain Rain
8:55 AM 44.6 °F 39.2 °F 42.1 °F 91% 29.61 in 7.0 mi SSW 10.4 mph - N/A Rain Light Rain
9:15 AM 44.1 °F 39.5 °F 41.5 °F 91% 29.61 in 10.0 mi SSW 8.1 mph 16.1 mph N/A   Light Drizzle
9:35 AM 43.9 °F 40.5 °F 41.5 °F 91% 29.60 in 10.0 mi SW 5.8 mph - N/A   Overcast
9:54 AM 43.7 °F 41.1 °F 41.9 °F 93% 29.60 in 10.0 mi SW 4.6 mph - N/A   Drizzle
10:15 AM 43.3 °F 41.7 °F 41.7 °F 94% 29.59 in 10.0 mi WSW 3.5 mph - N/A Rain Light Rain
10:35 AM 43.2 °F 39.7 °F 41.5 °F 94% 29.59 in 10.0 mi WSW 5.8 mph - N/A   Overcast
10:54 AM 43.0 °F 38.8 °F 41.0 °F 93% 29.59 in 10.0 mi WSW 6.9 mph - N/A   Overcast
11:15 AM 42.8 °F 38.6 °F 40.8 °F 93% 29.60 in 10.0 mi SW 6.9 mph - N/A   Overcast
11:35 AM 42.8 °F 39.3 °F 40.3 °F 91% 29.60 in 10.0 mi SW 5.8 mph - N/A   Overcast
11:54 AM 42.4 °F 37.5 °F 40.5 °F 93% 29.59 in 10.0 mi West 8.1 mph - N/A   Overcast
12:15 PM 42.3 °F 37.9 °F 40.6 °F 94% 29.59 in 4.0 mi West 6.9 mph - N/A   Overcast
12:35 PM 42.6 °F 39.0 °F 41.0 °F 94% 29.59 in 4.0 mi West 5.8 mph - N/A   Overcast
12:55 PM 42.8 °F 38.0 °F 40.3 °F 91% 29.58 in 7.0 mi West 8.1 mph - N/A   Overcast
1:15 PM 42.4 °F 39.6 °F 40.6 °F 93% 29.58 in 5.0 mi West 4.6 mph - N/A Rain Light Rain
1:34 PM 42.1 °F 38.4 °F 41.0 °F 96% 29.58 in 4.0 mi West 5.8 mph - N/A Rain Light Rain
1:55 PM 42.3 °F 37.3 °F 40.5 °F 93% 29.59 in 7.0 mi West 8.1 mph 17.3 mph N/A   Overcast
2:15 PM 41.7 °F 35.2 °F 39.7 °F 93% 29.60 in 5.0 mi West 11.5 mph 18.4 mph N/A Rain Light Rain
2:34 PM 41.2 °F 36.0 °F 39.9 °F 95% 29.61 in 3.0 mi West 8.1 mph - N/A Rain Light Rain
2:55 PM 41.0 °F 35.8 °F 39.4 °F 94% 29.61 in 4.0 mi West 8.1 mph - N/A   Overcast
3:14 PM 40.6 °F 34.8 °F 38.8 °F 93% 29.62 in 10.0 mi West 9.2 mph - N/A   Overcast
3:35 PM 40.3 °F 34.9 °F 37.8 °F 91% 29.63 in 10.0 mi West 8.1 mph - N/A   Overcast
3:55 PM 40.1 °F 33.2 °F 37.0 °F 89% 29.64 in 10.0 mi West 11.5 mph 19.6 mph N/A Rain Rain
4:14 PM 39.2 °F 30.8 °F 36.1 °F 89% 29.65 in 10.0 mi West 15.0 mph 21.9 mph N/A Rain Rain
4:35 PM 38.7 °F 33.6 °F 36.0 °F 90% 29.66 in 10.0 mi WSW 6.9 mph - N/A   Light Drizzle
4:54 PM 38.7 °F 33.6 °F 36.5 °F 92% 29.66 in 10.0 mi West 6.9 mph - N/A   Drizzle
5:15 PM 38.5 °F 31.6 °F 35.6 °F 89% 29.67 in 10.0 mi West 10.4 mph 19.6 mph N/A Rain Rain
5:35 PM 37.9 °F 30.5 °F 35.2 °F 90% 29.68 in 10.0 mi West 11.5 mph 19.6 mph N/A Rain Light Rain
5:55 PM 37.6 °F 31.6 °F 35.4 °F 92% 29.69 in 10.0 mi West 8.1 mph - N/A   Drizzle
6:15 PM 37.6 °F 31.0 °F 35.2 °F 91% 29.69 in 10.0 mi West 9.2 mph - N/A   Light Drizzle
6:34 PM 37.6 °F 30.0 °F 35.1 °F 91% 29.70 in 10.0 mi West 11.5 mph 17.3 mph N/A Rain Light Rain
6:55 PM 37.4 °F 30.8 °F 35.1 °F 91% 29.71 in 10.0 mi West 9.2 mph 16.1 mph N/A   Light Drizzle
7:15 PM 37.4 °F 30.8 °F 34.7 °F 90% 29.72 in 10.0 mi WSW 9.2 mph - N/A   Overcast
7:34 PM 37.4 °F 31.4 °F 34.5 °F 89% 29.72 in 10.0 mi WSW 8.1 mph 16.1 mph N/A   Overcast
7:55 PM 37.6 °F 31.0 °F 34.2 °F 87% 29.72 in 10.0 mi WSW 9.2 mph - N/A   Overcast
8:15 PM 38.1 °F 32.3 °F 34.0 °F 85% 29.72 in 10.0 mi WSW 8.1 mph 20.7 mph N/A   Overcast
8:34 PM 38.3 °F 32.5 °F 33.8 °F 84% 29.72 in 10.0 mi WSW 8.1 mph - N/A   Overcast
8:55 PM 38.3 °F 32.5 °F 33.8 °F 84% 29.72 in 10.0 mi WSW 8.1 mph - N/A   Overcast
9:15 PM 38.5 °F 31.6 °F 33.6 °F 83% 29.73 in 10.0 mi West 10.4 mph 17.3 mph N/A   Overcast
9:35 PM 38.7 °F 31.8 °F 33.3 °F 81% 29.73 in 10.0 mi West 10.4 mph 16.1 mph N/A   Overcast
9:55 PM 38.5 °F 32.1 °F 33.3 °F 81% 29.73 in 10.0 mi West 9.2 mph 16.1 mph N/A   Overcast
10:14 PM 38.7 °F 30.9 °F 33.1 °F 80% 29.73 in 10.0 mi West 12.7 mph 18.4 mph N/A   Overcast
10:35 PM 38.8 °F 31.6 °F 32.9 °F 79% 29.74 in 10.0 mi West 11.5 mph 20.7 mph N/A   Overcast
10:55 PM 38.7 °F 32.4 °F 33.1 °F 80% 29.75 in 10.0 mi West 9.2 mph 20.7 mph N/A   Overcast
11:14 PM 38.8 °F 31.6 °F 33.1 °F 80% 29.75 in 10.0 mi West 11.5 mph - N/A   Overcast
11:35 PM 38.7 °F 31.4 °F 32.9 °F 80% 29.75 in 10.0 mi West 11.5 mph 20.7 mph N/A   Overcast
11:55 PM 38.5 °F 30.3 °F 32.9 °F 80% 29.76 in 10.0 mi West 13.8 mph 18.4 mph N/A   Overcast